{"data":{"norad_id":49733,"epoch":"2026-05-25T02:08:51.937728Z","epoch_age_seconds":57468,"freshness":"FRESH","line1":"1 49733U 21115K   26145.08949002 -.00000472  00000+0 -11604-4 0  9996","line2":"2 49733  53.2163 176.1482 0000949  67.8581 292.2511 15.08831847246924","mean_motion":15.08831847,"eccentricity":9.49e-5,"inclination_deg":53.2163,"raan_deg":176.1482,"arg_perigee_deg":67.8581,"mean_anomaly_deg":292.2511,"bstar":-1.1604e-5,"rev_number":24692,"period_min":95.438070376307,"perigee_km":539.11180032179,"apogee_km":540.42481874954,"semimajor_km":6917.9053095357,"source":"CELESTRAK","updated_at":"2026-05-25T13:38:16.832693Z"}}